Center Hill Observed Data For Previous 48 Hours

Caption
Day and Hour Reservoir Elevation (behind dam)* Tailwater Elevation (below dam)* Average Hourly Discharge*
7/14/2018 1 AM CDT 632.07 475.97 250
7/14/2018 2 AM CDT 632.07 475.97 250
7/14/2018 3 AM CDT 632.07 475.97 250
7/14/2018 4 AM CDT 632.07 475.97 250
7/14/2018 5 AM CDT 632.07 475.97 250
7/14/2018 6 AM CDT 632.07 475.97 250
7/14/2018 7 AM CDT 632.07 475.97 250
7/14/2018 8 AM CDT 632.07 475.97 250
7/14/2018 9 AM CDT 632.07 475.97 250
7/14/2018 10 AM CDT 632.07 481.07 5,180
7/14/2018 11 AM CDT 632.05 481.75 5,185
7/14/2018 12 PM CDT 632.05 478.15 250
7/14/2018 1 PM CDT 632.04 476.94 250
7/14/2018 2 PM CDT 632.03 476.33 250
7/14/2018 3 PM CDT 632.02 476.12 250
7/14/2018 4 PM CDT 632.03 476.03 250
7/14/2018 5 PM CDT 632.05 475.95 250
7/14/2018 6 PM CDT 632.05 475.95 250
7/14/2018 7 PM CDT 632.06 475.96 250
7/14/2018 8 PM CDT 632.07 475.97 250
7/14/2018 9 PM CDT 632.08 475.98 250
7/14/2018 10 PM CDT 632.08 475.98 250
7/14/2018 11 PM CDT 632.07 475.97 250
7/15/2018 12 AM CDT 632.07 475.97 250
7/15/2018 1 AM CDT 632.08 475.98 250
7/15/2018 2 AM CDT 632.08 475.98 250
7/15/2018 3 AM CDT 632.08 475.98 250
7/15/2018 4 AM CDT 632.08 475.98 250
7/15/2018 5 AM CDT 632.08 475.98 250
7/15/2018 6 AM CDT 632.08 475.98 250
7/15/2018 7 AM CDT 632.08 475.98 250
7/15/2018 8 AM CDT 632.08 475.98 250
7/15/2018 9 AM CDT 632.09 475.99 250
7/15/2018 10 AM CDT 632.07 481.17 5,180
7/15/2018 11 AM CDT 632.06 481.76 5,185
7/15/2018 12 PM CDT 632.06 478.16 250
7/15/2018 1 PM CDT 632.06 476.96 250
7/15/2018 2 PM CDT 632.05 476.35 250
7/15/2018 3 PM CDT 632.05 476.15 250
7/15/2018 4 PM CDT 632.06 476.06 250
7/15/2018 5 PM CDT 632.06 475.96 250
7/15/2018 6 PM CDT 632.07 475.97 250
7/15/2018 7 PM CDT 632.07 475.97 250
7/15/2018 8 PM CDT 632.09 475.99 250
7/15/2018 9 PM CDT 632.09 475.99 250
7/15/2018 10 PM CDT 632.09 475.99 250
7/15/2018 11 PM CDT 632.09 475.99 250
7/16/2018 12 AM CDT 632.09 475.99 250

Elevations are in feet above sea level. Discharges are in cubic feet per second and are reported at the end of the hour.